< < Back
Terminal Aerodrome Forecast


Current Version              Previous Versions:   1  2  3  4  5  6  7  8  9  

Terminal Aerodrome Forecast

547
FTUS44 KBMX 010500
TAFANB
TAF
KANB 010525Z 0106/0206 00000KT P6SM SKC
      TEMPO 0108/0112 4SM BR
     FM011400 15003KT P6SM SKC=

Latest METAR

565
SAUS70 KWBC 300800 RRW
MTRANB
METAR KANB 010753Z AUTO 09003KT 9SM CLR 17/16 A2994 RMK AO2 SLP131
T01670156


USA.gov is the U.S. government's official web portal to all federal, state and local government web resources and services.